| time (UTC) | temp C | wind direction | speed KPH | gust KPH | rain 1hr cm | rain 24hr cm | rain mn cm | humidity % | barometer mb |
| 20260505230046 | 27 | 147 | 3.2 | 19.3 | 0.00 | 0.00 | 0.00 | 77 | 1008.9 |
| 20260505224529 | 27 | 142 | 4.8 | 20.9 | 0.00 | 0.00 | 0.00 | 77 | 1008.8 |
| 20260505223031 | 28 | 160 | 4.8 | 17.7 | 0.00 | 0.00 | 0.00 | 77 | 1008.7 |
| 20260505221529 | 28 | 174 | 4.8 | 17.7 | 0.00 | 0.00 | 0.00 | 76 | 1008.7 |
| 20260505220033 | 28 | 171 | 4.8 | 14.5 | 0.00 | 0.00 | 0.00 | 76 | 1009.0 |
| 20260505214529 | 28 | 155 | 3.2 | 14.5 | 0.00 | 0.00 | 0.00 | 76 | 1009.2 |
| 20260505213028 | 28 | 99 | 4.8 | 17.7 | 0.00 | 0.00 | 0.00 | 75 | 1009.1 |
| 20260505211530 | 28 | 132 | 3.2 | 19.3 | 0.00 | 0.00 | 0.00 | 76 | 1009.2 |
| 20260505210030 | 28 | 173 | 8.0 | 22.5 | 0.00 | 0.00 | 0.00 | 75 | 1009.3 |
| 20260505204527 | 28 | 176 | 8.0 | 29.0 | 0.00 | 0.00 | 0.00 | 75 | 1009.5 |
| 20260505203030 | 28 | 174 | 6.4 | 19.3 | 0.00 | 0.00 | 0.00 | 76 | 1009.7 |
| 20260505201529 | 28 | 140 | 4.8 | 17.7 | 0.00 | 0.00 | 0.00 | 76 | 1010.0 |
| 20260505200029 | 28 | 169 | 4.8 | 19.3 | 0.00 | 0.00 | 0.00 | 75 | 1010.2 |
| 20260505194529 | 28 | 261 | 4.8 | 14.5 | 0.00 | 0.00 | 0.00 | 74 | 1010.2 |
| 20260505193031 | 28 | 142 | 4.8 | 16.1 | 0.00 | 0.00 | 0.00 | 76 | 1010.3 |
| 20260505191529 | 28 | 164 | 4.8 | 17.7 | 0.00 | 0.00 | 0.00 | 77 | 1010.4 |
| 20260505190029 | 27 | 223 | 4.8 | 19.3 | 0.00 | 0.00 | 0.00 | 78 | 1010.8 |
| 20260505184530 | 27 | 203 | 9.7 | 17.7 | 0.00 | 0.00 | 0.00 | 78 | 1010.9 |
| 20260505183035 | 27 | 147 | 3.2 | 19.3 | 0.00 | 0.00 | 0.00 | 78 | 1010.9 |
| 20260505181529 | 27 | 179 | 3.2 | 17.7 | 0.00 | 0.00 | 0.00 | 79 | 1011.0 |
| 20260505180043 | 27 | 179 | 3.2 | 11.3 | 0.00 | 0.00 | 0.00 | 80 | 1011.3 |
| 20260505174532 | 27 | 184 | 3.2 | 16.1 | 0.00 | 0.00 | 0.00 | 80 | 1011.3 |
| 20260505173029 | 27 | 201 | 4.8 | 20.9 | 0.00 | 0.00 | 0.00 | 80 | 1011.5 |
| 20260505171531 | 26 | 144 | 3.2 | 17.7 | 0.00 | 0.00 | 0.00 | 80 | 1011.4 |
| 20260505170028 | 26 | 219 | 3.2 | 14.5 | 0.00 | 0.00 | 0.00 | 81 | 1011.7 |
| 20260505164528 | 26 | 180 | 4.8 | 16.1 | 0.00 | 0.00 | 0.00 | 81 | 1011.7 |
| 20260505163029 | 26 | 172 | 4.8 | 16.1 | 0.00 | 0.00 | 0.00 | 81 | 1011.6 |
| 20260505161530 | 26 | 171 | 4.8 | 24.1 | 0.00 | 0.00 | 0.00 | 81 | 1011.5 |
| 20260505153028 | 26 | 0 | 4.8 | 25.7 | 0.00 | 0.00 | 0.00 | 82 | 1011.4 |
| 20260505151528 | 25 | 0 | 1.6 | 14.5 | 0.00 | 0.00 | 0.00 | 82 | 1011.2 |
| 20260505124532 | 23 | 115 | 1.6 | 11.3 | 0.00 | 0.00 | 0.00 | 86 | 1010.8 |
| 20260505123035 | 23 | 157 | 0.0 | 11.3 | 0.00 | 0.00 | 0.00 | 87 | 1010.7 |
| 20260505121530 | 23 | 171 | 3.2 | 11.3 | 0.00 | 0.00 | 0.00 | 87 | 1010.4 |
| 20260505120030 | 23 | 119 | 1.6 | 14.5 | 0.00 | 0.00 | 0.00 | 87 | 1010.3 |
| 20260505114618 | 23 | 0 | 3.2 | 9.7 | 0.00 | 0.00 | 0.00 | 87 | 1010.7 |
| 20260505114529 | 23 | 0 | 3.2 | 9.7 | 0.00 | 0.00 | 0.00 | 87 | 1010.7 |
| 20260505113028 | 23 | 223 | 4.8 | 14.5 | 0.00 | 0.00 | 0.00 | 86 | 1010.5 |
| 20260505111528 | 23 | 171 | 1.6 | 12.9 | 0.00 | 0.00 | 0.00 | 86 | 1010.4 |
| 20260505101548 | 22 | 194 | 1.6 | 11.3 | 0.00 | 0.00 | 0.00 | 86 | 1010.5 |
| 20260505100053 | 22 | 0 | 1.6 | 11.3 | 0.00 | 0.00 | 0.00 | 86 | 1010.6 |
| 20260505094532 | 22 | 120 | 1.6 | 12.9 | 0.00 | 0.00 | 0.00 | 86 | 1010.7 |
| 20260505093028 | 22 | 0 | 3.2 | 12.9 | 0.00 | 0.00 | 0.00 | 86 | 1010.7 |
| 20260505091528 | 22 | 161 | 1.6 | 12.9 | 0.00 | 0.00 | 0.00 | 86 | 1010.9 |
| 20260505090029 | 22 | 155 | 1.6 | 8.0 | 0.00 | 0.00 | 0.00 | 86 | 1011.1 |
| 20260505084529 | 22 | 140 | 1.6 | 9.7 | 0.00 | 0.00 | 0.00 | 86 | 1011.0 |
| 20260505083028 | 22 | 163 | 1.6 | 11.3 | 0.00 | 0.00 | 0.00 | 85 | 1011.0 |
| 20260505081528 | 22 | 116 | 1.6 | 12.9 | 0.00 | 0.00 | 0.00 | 85 | 1011.4 |
| 20260505080028 | 22 | 190 | 1.6 | 12.9 | 0.00 | 0.00 | 0.00 | 85 | 1011.3 |
| 20260505074531 | 22 | 174 | 3.2 | 12.9 | 0.00 | 0.00 | 0.00 | 85 | 1011.5 |
| 20260505073037 | 22 | 0 | 3.2 | 11.3 | 0.00 | 0.00 | 0.00 | 85 | 1011.6 |
| 20260505071530 | 22 | 145 | 3.2 | 12.9 | 0.00 | 0.00 | 0.00 | 84 | 1011.8 |
| 20260505070030 | 22 | 134 | 3.2 | 14.5 | 0.00 | 0.00 | 0.00 | 84 | 1011.9 |
| 20260505064527 | 22 | 171 | 1.6 | 14.5 | 0.00 | 0.00 | 0.00 | 84 | 1012.1 |
| 20260505063030 | 22 | 119 | 3.2 | 16.1 | 0.00 | 0.00 | 0.00 | 83 | 1012.3 |
| 20260505061537 | 22 | 161 | 3.2 | 11.3 | 0.00 | 0.00 | 0.00 | 83 | 1012.7 |
| 20260505060030 | 22 | 0 | 1.6 | 14.5 | 0.00 | 0.00 | 0.00 | 83 | 1012.6 |
| 20260505054529 | 22 | 148 | 1.6 | 12.9 | 0.00 | 0.00 | 0.00 | 82 | 1012.6 |
| 20260505053038 | 22 | 192 | 3.2 | 12.9 | 0.00 | 0.00 | 0.00 | 82 | 1012.7 |
| 20260505051538 | 22 | 148 | 1.6 | 11.3 | 0.00 | 0.00 | 0.00 | 82 | 1012.6 |
| 20260505041528 | 22 | 0 | 3.2 | 11.3 | 0.00 | 0.00 | 0.00 | 79 | 1012.9 |
| 20260505040029 | 22 | 182 | 3.2 | 14.5 | 0.00 | 0.00 | 0.00 | 79 | 1013.2 |
| 20260505034532 | 22 | 97 | 3.2 | 17.7 | 0.00 | 0.00 | 0.00 | 78 | 1013.4 |
| 20260505033028 | 23 | 0 | 3.2 | 14.5 | 0.00 | 0.00 | 0.00 | 77 | 1013.3 |
| 20260505031537 | 23 | 171 | 4.8 | 14.5 | 0.00 | 0.00 | 0.00 | 77 | 1013.2 |
| 20260505030030 | 23 | 134 | 4.8 | 16.1 | 0.00 | 0.00 | 0.00 | 77 | 1013.1 |
| 20260505024527 | 23 | 246 | 4.8 | 14.5 | 0.00 | 0.00 | 0.00 | 76 | 1013.1 |
| 20260505023027 | 23 | 143 | 3.2 | 16.1 | 0.00 | 0.00 | 0.00 | 76 | 1013.1 |
| 20260505021535 | 23 | 122 | 3.2 | 16.1 | 0.00 | 0.00 | 0.00 | 76 | 1013.0 |
| 20260505020036 | 23 | 141 | 4.8 | 20.9 | 0.00 | 0.00 | 0.00 | 75 | 1013.0 |
| 20260505014528 | 23 | 139 | 6.4 | 17.7 | 0.00 | 0.00 | 0.00 | 75 | 1012.8 |
| 20260505013031 | 23 | 123 | 4.8 | 14.5 | 0.00 | 0.00 | 0.00 | 74 | 1012.5 |
| 20260505011535 | 23 | 126 | 4.8 | 20.9 | 0.00 | 0.00 | 0.00 | 73 | 1012.7 |
| 20260505010050 | 24 | 89 | 6.4 | 17.7 | 0.00 | 0.00 | 0.00 | 73 | 1012.5 |
| 20260505004530 | 24 | 148 | 6.4 | 20.9 | 0.00 | 0.00 | 0.00 | 72 | 1012.3 |
| 20260505003032 | 25 | 173 | 4.8 | 16.1 | 0.00 | 0.00 | 0.00 | 71 | 1012.4 |
| 20260505001528 | 25 | 148 | 6.4 | 16.1 | 0.00 | 0.00 | 0.00 | 70 | 1012.3 |
| 20260505000041 | 25 | 103 | 6.4 | 12.9 | 0.00 | 0.00 | 0.00 | 70 | 1012.4 |
| 20260504234529 | 25 | 105 | 6.4 | 17.7 | 0.00 | 0.00 | 0.00 | 69 | 1012.6 |
| 20260504233031 | 25 | 220 | 4.8 | 20.9 | 0.00 | 0.00 | 0.00 | 69 | 1012.5 |
| 20260504231527 | 25 | 112 | 8.0 | 24.1 | 0.00 | 0.00 | 0.00 | 68 | 1012.8 |